Home   Weather   Huddersfield   Past weeks

Flag for United Kingdom Past Weather in Huddersfield, England, United Kingdom — Yesterday and Last 2 Weeks

Now
59 °F

Partly sunny.


Feels Like: 57 °F
Forecast: 54 / 69 °F
Wind: 13 mph from Southwest

Location: Leeds And Bradford

Current Time: Sep 27, 2016 at 11:36:12 AM

Latest Report: Sep 27, 2016 at 11:20 AM


Visibility: N/A

Pressure: 30.01 "Hg

Humidity: 94%

Dew Point: 57 °F

Location of HuddersfieldLocation

Past Weather in Huddersfield — Graph

°F

Huddersfield Temperature Yesterday

Maximum temperature yesterday: 54 °F (at 11:20 AM)
Minimum temperature yesterday: 46 °F (at 1:20 AM)
Average temperature yesterday: 51 °F

High & Low Weather Summary for the Past Weeks

 TemperatureHumidityPressure
High79 °F (Sep 13, 2:20 PM)100% (Sep 13, 3:20 AM)30.21 "Hg (Sep 13, 3:20 AM)
Low46 °F (Sep 18, 3:20 AM)51% (Sep 22, 4:20 PM)29.68 "Hg (Sep 25, 2:20 AM)
Average57 °F86%30.00 "Hg
* Reported Sep 12 10:20 AM — Sep 27 10:20 AM, Huddersfield, Weather by CustomWeather, © 2016

Note: Actual official high and low records may vary slightly from our data, if they occured in-between our weather recording intervals... More about our weather records

Advertising

Huddersfield Weather History for the Previous 24 Hours

Scroll right to see more
 ConditionsComfort  
Time TempWeatherWind HumidityBarometerVisibility
10:20 AM
Tue, Sep 27
55 °FPartly sunny.6 mph100%30.01 "HgN/A
9:50 AM55 °FPartly sunny.7 mph94%30.01 "HgN/A
9:20 AM55 °FDrizzle. Partly sunny.9 mph94%30.01 "HgN/A
8:50 AM55 °FScattered clouds.9 mph94%30.01 "HgN/A
8:20 AM54 °FScattered clouds.7 mph100%30.01 "HgN/A
7:50 AM54 °FScattered clouds.10 mph94%30.01 "HgN/A
7:20 AM54 °FScattered clouds.10 mph94%30.01 "HgN/A
6:50 AM54 °FPassing clouds.9 mph94%30.01 "HgN/A
6:20 AM52 °FPassing clouds.9 mph100%30.01 "HgN/A
5:50 AM50 °FPassing clouds.8 mph100%30.01 "HgN/A
5:20 AM50 °FPassing clouds.8 mph100%30.04 "HgN/A
4:50 AM50 °FPassing clouds.9 mph100%30.04 "HgN/A
4:20 AM52 °FPassing clouds.8 mph100%30.04 "HgN/A
3:50 AM52 °FPassing clouds.8 mph100%30.04 "HgN/A
3:20 AM52 °FPassing clouds.7 mph100%30.07 "HgN/A
2:50 AM52 °FPassing clouds.6 mph100%30.07 "HgN/A
2:20 AM52 °FPassing clouds.6 mph100%30.09 "HgN/A
1:50 AM54 °FPassing clouds.5 mph94%30.09 "HgN/A
1:20 AM54 °FPassing clouds.6 mph100%30.07 "HgN/A
12:50 AM54 °FPassing clouds.7 mph100%30.07 "HgN/A
12:20 AM54 °FSprinkles. Passing clouds.8 mph100%30.07 "HgN/A
11:50 PM
Mon, Sep 26
54 °FSprinkles. Passing clouds.8 mph100%30.07 "HgN/A
11:20 PM54 °FPassing clouds.5 mph100%30.09 "HgN/A
10:50 PM54 °FSprinkles. Passing clouds.7 mph100%30.09 "Hg5 mi
10:20 PM54 °FPassing clouds.7 mph100%30.09 "HgN/A
9:50 PM54 °FFog.6 mph100%30.09 "Hg3 mi
9:20 PM54 °FFog.8 mph100%30.07 "Hg2 mi
8:50 PM54 °FPassing clouds.8 mph100%30.07 "HgN/A
8:20 PM54 °FLight rain. Passing clouds.10 mph100%30.07 "HgN/A
7:50 PM54 °FLight rain. Passing clouds.8 mph100%30.07 "HgN/A
7:20 PM54 °FLight rain. Passing clouds.8 mph100%30.07 "HgN/A
6:50 PM54 °FLight rain. Broken clouds.9 mph100%30.07 "Hg4 mi
6:20 PM54 °FLight rain. Fog.7 mph100%30.07 "Hg2 mi
5:50 PM54 °FLight rain. Fog.10 mph100%30.04 "Hg2 mi
5:20 PM54 °FLight rain. Fog.8 mph100%30.04 "Hg2 mi
4:50 PM54 °FLight rain. Fog.8 mph100%30.04 "Hg2 mi
4:20 PM54 °FLight rain. Broken clouds.9 mph100%30.07 "Hg5 mi
3:50 PM54 °FLight rain. Broken clouds.9 mph100%30.07 "HgN/A
3:20 PM54 °FLight rain. Fog.8 mph100%30.07 "Hg3 mi
2:50 PM54 °FLight rain. Partly sunny.9 mph100%30.07 "Hg6 mi
2:20 PM54 °FLight rain. Partly sunny.8 mph100%30.07 "HgN/A
1:50 PM54 °FLight rain. Scattered clouds.9 mph94%30.07 "HgN/A
1:20 PM54 °FLight rain. Scattered clouds.7 mph94%30.09 "HgN/A
12:50 PM54 °FLight rain. Scattered clouds.8 mph88%30.09 "HgN/A
12:20 PM54 °FScattered clouds.6 mph94%30.09 "HgN/A
11:50 AM54 °FSprinkles. Passing clouds.6 mph94%30.09 "HgN/A
11:20 AM54 °FPassing clouds.6 mph94%30.09 "HgN/A
Weather by CustomWeather, © 2016

See weather overviewHow to use our weather pages